Location: Marsån
(66.4167°N, 22.2833°E)
Time: 11:30:38
(UTC+00:00)

Meteor 1-21 - Pass Details

Date: 24 February 2024
Orbit: 844 x 887 km, 81.2° (Epoch: 15 April)

Event Time Altitude Azimuth Distance (km) Brightness Sun altitude
Rises 20:09:23 0° 334° (NNW) 3,494 8.5 -27.3°
Reaches altitude 10° 20:11:53 10° 338° (NNW) 2,547 7.5 -27.4°
Enters shadow 20:17:33 61° 54° (NE) 989 4.4 -27.8°
